Weather History for Burley, ID

Change the Weather History Date:

Saturday, November 2, 2013

  Actual Average Record
Temperature  
Mean Temperature 48 °F 42 °F  
Max Temperature 67 °F 53 °F 75 °F (1962)
Min Temperature 29 °F 30 °F 5 °F (1991)
Degree Days  
Heating Degree Days 17 24  
Month to date heating degree days 38 47  
Since 1 July heating degree days 787 855  
Cooling Degree Days 0 0  
Month to date cooling degree days 0 0  
Year to date cooling degree days 642 365  
Moisture  
Dew Point 30 °F    
Average Humidity 57    
Maximum Humidity 92    
Minimum Humidity 22    
Precipitation  
Precipitation 0.01 in 0.02 in 0.57 in (2008)
Month to date precipitation 0.01 0.05  
Year to date precipitation 4.34 8.12  
Sea Level Pressure  
Sea Level Pressure 29.91 in    
Wind  
Wind Speed 12 mph (SW)    
Max Wind Speed 25 mph    
Max Gust Speed 38 mph    
Visibility 10 miles    
Events      
T = Trace of Precipitation, MM = Missing Value Source: NWS Daily Summary

Daily Weather History Graph

Daily Weather History Graph

Search for Another Location

Airport:

Trip Planner

Search our weather history database for the weather conditions in past years. The results will help you decide how hot, cold, wet, or windy it might be!

Date:

Astronomy

Nov. 02, 2013 Rise Set
Actual Time 8:10 AM MDT 6:26 PM MDT
Civil Twilight 7:40 AM MDT 6:55 PM MDT
Nautical Twilight 7:07 AM MDT 7:28 PM MDT
Astronomical Twilight 6:34 AM MDT 8:01 PM MDT
Moon 7:11 AM MDT (11/2) 6:00 PM MDT (11/2)
Length of Visible Light 11h 14m
Length of Day
10h 15m
Waning Crescent, 1% of the Moon is Illuminated
Nov 2
Waning Crescent
Nov 3
New
Nov 9
First Quarter
Nov 17
Full
Nov 25
Last Quarter

Hourly Weather History & Observations

Time (MDT) Temp. Windchill Dew Point Humidity Pressure Visibility Wind Dir Wind Speed Gust Speed Precip Events Conditions
12:53 AM 32.0 °F 28.7 °F 28.9 °F 88% 30.15 in 10.0 mi East 3.5 mph - N/A   Clear
1:53 AM 32.0 °F 28.7 °F 28.9 °F 88% 30.13 in 10.0 mi SE 3.5 mph - N/A   Clear
2:53 AM 28.9 °F - 27.0 °F 92% 30.11 in 10.0 mi Calm Calm - N/A   Clear
3:53 AM 33.1 °F 30.0 °F 30.0 °F 89% 30.07 in 10.0 mi NE 3.5 mph - N/A   Clear
4:53 AM 30.0 °F 24.1 °F 28.0 °F 92% 30.06 in 10.0 mi ESE 5.8 mph - N/A   Clear
5:53 AM 30.9 °F 25.2 °F 28.0 °F 89% 30.04 in 10.0 mi ESE 5.8 mph - N/A   Clear
6:53 AM 34.0 °F 28.0 °F 28.9 °F 82% 30.04 in 10.0 mi East 6.9 mph - N/A   Clear
7:53 AM 30.0 °F 23.2 °F 27.0 °F 88% 30.04 in 10.0 mi North 6.9 mph - N/A   Clear
8:53 AM 37.0 °F 33.3 °F 30.0 °F 76% 30.00 in 10.0 mi West 4.6 mph - N/A   Clear
9:53 AM 45.0 °F 43.5 °F 32.0 °F 60% 29.99 in 10.0 mi Variable 3.5 mph - N/A   Clear
10:28 AM 52.0 °F - 32.0 °F 47% 29.97 in 10.0 mi SSW 20.7 mph 29.9 mph N/A   Clear
10:53 AM 55.0 °F - 30.9 °F 40% 29.95 in 10.0 mi SSW 20.7 mph 27.6 mph N/A   Clear
11:53 AM 59.0 °F - 28.9 °F 32% 29.91 in 10.0 mi SSW 21.9 mph 27.6 mph N/A   Clear
12:53 PM 62.1 °F - 30.0 °F 30% 29.86 in 10.0 mi SSW 19.6 mph 26.5 mph N/A   Clear
1:53 PM 64.9 °F - 27.0 °F 24% 29.81 in 10.0 mi SSW 19.6 mph 27.6 mph N/A   Clear
2:53 PM 64.9 °F - 26.1 °F 23% 29.76 in 10.0 mi South 20.7 mph 27.6 mph N/A   Clear
3:53 PM 66.0 °F - 26.1 °F 22% 29.72 in 10.0 mi WNW 8.1 mph - N/A   Clear
4:53 PM 64.0 °F - 27.0 °F 25% 29.71 in 10.0 mi WNW 6.9 mph - N/A   Clear
5:53 PM 59.0 °F - 28.9 °F 32% 29.71 in 10.0 mi West 8.1 mph - N/A   Mostly Cloudy
6:53 PM 57.9 °F - 30.0 °F 35% 29.72 in 10.0 mi West 12.7 mph 20.7 mph N/A   Overcast
7:53 PM 46.9 °F - 35.1 °F 63% 29.82 in 8.0 mi West 19.6 mph 29.9 mph 0.00 in   Overcast
8:03 PM 46.9 °F - 34.0 °F 61% 29.81 in 9.0 mi West 17.3 mph 27.6 mph N/A   Overcast
8:10 PM 46.0 °F 39.3 °F 34.0 °F 63% 29.81 in 10.0 mi West 16.1 mph 31.1 mph N/A   Overcast
8:53 PM 45.0 °F 38.2 °F 32.0 °F 60% 29.85 in 10.0 mi West 15.0 mph 26.5 mph N/A   Overcast
9:53 PM 42.1 °F 34.5 °F 34.0 °F 73% 29.86 in 10.0 mi WSW 15.0 mph 24.2 mph N/A   Overcast
10:53 PM 41.0 °F 32.2 °F 34.0 °F 76% 29.82 in 10.0 mi SW 18.4 mph - N/A   Overcast
11:53 PM 42.1 °F 33.6 °F 34.0 °F 73% 29.81 in 10.0 mi WSW 18.4 mph 24.2 mph N/A   Overcast